Wetterdaten: Dienstag, 08.09.2015
Datum Zeit Auen-Temp. Temp gefhlt Luftfeuchte Luftdruck Regen Wind Richtung Richtung Taupunkt Windben
08.09.2015 00:00 9,0 C 8,8 C 81 % 1025,0 hPa 0,0 mm 0,8 km/h (0 Bft) S 180 5,9 C 3,4 km/h (1 Bft)
08.09.2015 00:05 9,0 C 8,9 C 81 % 1025,0 hPa 0,0 mm 1,3 km/h (1 Bft) S-SO 157 5,9 C 0,0 km/h (0 Bft)
08.09.2015 00:10 9,0 C 8,9 C 81 % 1025,0 hPa 0,0 mm 0,8 km/h (0 Bft) SO 135 5,9 C 0,0 km/h (0 Bft)
08.09.2015 00:15 8,9 C 8,9 C 79 % 1024,9 hPa 0,0 mm 0,0 km/h (0 Bft) SO 135 5,5 C 0,0 km/h (0 Bft)
08.09.2015 00:20 8,9 C 8,8 C 81 % 1024,9 hPa 0,0 mm 0,0 km/h (0 Bft) SO 135 5,8 C 0,0 km/h (0 Bft)
08.09.2015 00:25 8,8 C 8,7 C 81 % 1024,9 hPa 0,0 mm 0,0 km/h (0 Bft) S-SO 157 5,7 C 0,0 km/h (0 Bft)
08.09.2015 00:30 8,8 C 8,7 C 81 % 1024,9 hPa 0,0 mm 0,0 km/h (0 Bft) SO 135 5,7 C 0,0 km/h (0 Bft)
08.09.2015 00:35 8,7 C 8,7 C 80 % 1024,8 hPa 0,0 mm 0,0 km/h (0 Bft) SO 135 5,4 C 0,0 km/h (0 Bft)
08.09.2015 00:40 8,7 C 8,6 C 80 % 1024,8 hPa 0,0 mm 0,0 km/h (0 Bft) SW 225 5,4 C 0,0 km/h (0 Bft)
08.09.2015 00:45 8,7 C 8,6 C 80 % 1024,8 hPa 0,0 mm 0,0 km/h (0 Bft) S 180 5,4 C 0,0 km/h (0 Bft)
08.09.2015 00:50 8,7 C 8,5 C 82 % 1024,8 hPa 0,0 mm 0,0 km/h (0 Bft) S 180 5,8 C 0,0 km/h (0 Bft)
08.09.2015 00:55 8,6 C 8,5 C 80 % 1024,6 hPa 0,0 mm 0,0 km/h (0 Bft) S-SO 157 5,3 C 0,0 km/h (0 Bft)
08.09.2015 01:00 8,6 C 8,5 C 80 % 1024,6 hPa 0,0 mm 0,0 km/h (0 Bft) SO 135 5,3 C 0,0 km/h (0 Bft)
08.09.2015 01:05 8,6 C 8,5 C 80 % 1024,6 hPa 0,0 mm 0,0 km/h (0 Bft) O-SO 112 5,3 C 0,0 km/h (0 Bft)
08.09.2015 01:10 8,6 C 8,4 C 82 % 1024,6 hPa 0,0 mm 0,0 km/h (0 Bft) O-SO 112 5,7 C 0,0 km/h (0 Bft)
08.09.2015 01:15 8,6 C 8,4 C 82 % 1024,7 hPa 0,0 mm 0,0 km/h (0 Bft) S-SW 202 5,7 C 0,0 km/h (0 Bft)
08.09.2015 01:20 8,4 C 8,3 C 82 % 1024,7 hPa 0,0 mm 0,0 km/h (0 Bft) S 180 5,5 C 0,0 km/h (0 Bft)
08.09.2015 01:25 8,4 C 8,3 C 82 % 1024,7 hPa 0,0 mm 0,0 km/h (0 Bft) S 180 5,5 C 0,0 km/h (0 Bft)
08.09.2015 01:30 8,5 C 8,3 C 82 % 1024,7 hPa 0,0 mm 0,0 km/h (0 Bft) S 180 5,6 C 0,0 km/h (0 Bft)
08.09.2015 01:35 8,4 C 8,3 C 82 % 1024,6 hPa 0,0 mm 0,0 km/h (0 Bft) S 180 5,5 C 0,0 km/h (0 Bft)
08.09.2015 01:40 8,4 C 8,2 C 82 % 1024,6 hPa 0,0 mm 0,0 km/h (0 Bft) S 180 5,5 C 0,0 km/h (0 Bft)
08.09.2015 01:45 8,4 C 8,2 C 82 % 1024,6 hPa 0,0 mm 0,0 km/h (0 Bft) S 180 5,5 C 0,0 km/h (0 Bft)
08.09.2015 01:50 8,3 C 8,1 C 82 % 1024,6 hPa 0,0 mm 0,0 km/h (0 Bft) S 180 5,4 C 0,0 km/h (0 Bft)
08.09.2015 01:55 8,3 C 8,1 C 83 % 1024,4 hPa 0,0 mm 0,0 km/h (0 Bft) W-SW 247 5,6 C 0,0 km/h (0 Bft)
08.09.2015 02:00 8,2 C 8,0 C 83 % 1024,4 hPa 0,0 mm 0,0 km/h (0 Bft) W-SW 247 5,5 C 0,0 km/h (0 Bft)
08.09.2015 02:05 8,3 C 8,1 C 83 % 1024,4 hPa 0,0 mm 0,0 km/h (0 Bft) W-SW 247 5,6 C 0,0 km/h (0 Bft)
08.09.2015 02:10 8,2 C 8,0 C 83 % 1024,4 hPa 0,0 mm 0,0 km/h (0 Bft) W-SW 247 5,5 C 0,0 km/h (0 Bft)
08.09.2015 02:15 8,2 C 8,0 C 83 % 1024,4 hPa 0,0 mm 0,0 km/h (0 Bft) W-SW 247 5,5 C 0,0 km/h (0 Bft)
08.09.2015 02:20 8,2 C 8,1 C 82 % 1024,4 hPa 0,0 mm 0,0 km/h (0 Bft) S 180 5,3 C 0,0 km/h (0 Bft)
08.09.2015 02:25 8,2 C 8,0 C 84 % 1024,4 hPa 0,0 mm 0,0 km/h (0 Bft) S 180 5,7 C 0,0 km/h (0 Bft)
08.09.2015 02:30 8,2 C 8,0 C 84 % 1024,4 hPa 0,0 mm 0,0 km/h (0 Bft) S 180 5,7 C 0,0 km/h (0 Bft)
08.09.2015 02:35 8,2 C 8,0 C 84 % 1024,2 hPa 0,0 mm 0,0 km/h (0 Bft) SW 225 5,7 C 0,0 km/h (0 Bft)
08.09.2015 02:40 8,1 C 7,9 C 84 % 1024,2 hPa 0,0 mm 0,0 km/h (0 Bft) S 180 5,6 C 0,0 km/h (0 Bft)
08.09.2015 02:45 8,1 C 7,9 C 84 % 1024,2 hPa 0,0 mm 0,0 km/h (0 Bft) S 180 5,6 C 0,0 km/h (0 Bft)
08.09.2015 02:50 8,0 C 7,8 C 84 % 1024,2 hPa 0,0 mm 0,0 km/h (0 Bft) SW 225 5,5 C 0,0 km/h (0 Bft)
08.09.2015 02:55 8,0 C 7,8 C 84 % 1023,9 hPa 0,0 mm 0,0 km/h (0 Bft) S 180 5,5 C 0,0 km/h (0 Bft)
08.09.2015 03:00 8,0 C 7,9 C 82 % 1023,9 hPa 0,0 mm 0,0 km/h (0 Bft) S-SO 157 5,1 C 0,0 km/h (0 Bft)
08.09.2015 03:05 8,1 C 7,9 C 85 % 1023,9 hPa 0,0 mm 0,0 km/h (0 Bft) S 180 5,7 C 0,0 km/h (0 Bft)
08.09.2015 03:10 8,0 C 7,8 C 85 % 1023,9 hPa 0,0 mm 0,0 km/h (0 Bft) S-SO 157 5,6 C 0,0 km/h (0 Bft)
08.09.2015 03:15 7,9 C 7,7 C 85 % 1023,9 hPa 0,0 mm 0,0 km/h (0 Bft) S 180 5,5 C 0,0 km/h (0 Bft)
08.09.2015 03:20 7,9 C 7,7 C 85 % 1023,9 hPa 0,0 mm 0,0 km/h (0 Bft) S 180 5,5 C 0,0 km/h (0 Bft)
08.09.2015 03:25 7,8 C 7,6 C 85 % 1023,9 hPa 0,0 mm 0,0 km/h (0 Bft) S-SO 157 5,4 C 0,0 km/h (0 Bft)
08.09.2015 03:30 7,7 C 7,5 C 85 % 1023,9 hPa 0,0 mm 0,0 km/h (0 Bft) W-SW 247 5,3 C 0,0 km/h (0 Bft)
08.09.2015 03:35 7,5 C 7,4 C 85 % 1023,8 hPa 0,0 mm 0,0 km/h (0 Bft) W-SW 247 5,1 C 0,0 km/h (0 Bft)
08.09.2015 03:40 7,5 C 7,3 C 85 % 1023,8 hPa 0,0 mm 0,0 km/h (0 Bft) S 180 5,1 C 0,0 km/h (0 Bft)
08.09.2015 03:45 7,4 C 7,2 C 85 % 1023,8 hPa 0,0 mm 0,0 km/h (0 Bft) S-SO 157 5,0 C 0,0 km/h (0 Bft)
08.09.2015 03:50 7,3 C 7,1 C 86 % 1023,8 hPa 0,0 mm 0,0 km/h (0 Bft) S-SO 157 5,1 C 0,0 km/h (0 Bft)
08.09.2015 03:55 7,3 C 7,1 C 86 % 1023,8 hPa 0,0 mm 0,0 km/h (0 Bft) S-SO 157 5,1 C 0,0 km/h (0 Bft)
08.09.2015 04:00 7,1 C 6,9 C 86 % 1023,8 hPa 0,0 mm 0,0 km/h (0 Bft) S-SO 157 4,9 C 0,0 km/h (0 Bft)
08.09.2015 04:05 7,1 C 6,9 C 86 % 1023,8 hPa 0,0 mm 0,0 km/h (0 Bft) S 180 4,9 C 0,0 km/h (0 Bft)
08.09.2015 04:10 7,1 C 6,9 C 86 % 1023,8 hPa 0,0 mm 0,3 km/h (0 Bft) S 180 4,9 C 0,0 km/h (0 Bft)
08.09.2015 04:15 7,2 C 7,0 C 86 % 1023,8 hPa 0,0 mm 0,3 km/h (0 Bft) S 180 5,0 C 0,0 km/h (0 Bft)
08.09.2015 04:20 7,2 C 7,0 C 87 % 1023,8 hPa 0,0 mm 0,0 km/h (0 Bft) S-SO 157 5,2 C 0,0 km/h (0 Bft)
08.09.2015 04:25 7,1 C 6,9 C 87 % 1023,8 hPa 0,0 mm 0,0 km/h (0 Bft) S 180 5,1 C 0,0 km/h (0 Bft)
08.09.2015 04:30 7,1 C 6,9 C 87 % 1023,8 hPa 0,0 mm 0,0 km/h (0 Bft) S-SO 157 5,1 C 0,0 km/h (0 Bft)
08.09.2015 04:35 6,9 C 6,7 C 87 % 1023,6 hPa 0,0 mm 0,0 km/h (0 Bft) S 180 4,9 C 0,0 km/h (0 Bft)
08.09.2015 04:40 6,7 C 6,5 C 87 % 1023,6 hPa 0,0 mm 0,0 km/h (0 Bft) S-SO 157 4,7 C 0,0 km/h (0 Bft)
08.09.2015 04:45 6,6 C 6,4 C 87 % 1023,6 hPa 0,0 mm 0,0 km/h (0 Bft) SO 135 4,6 C 0,0 km/h (0 Bft)
08.09.2015 04:50 6,4 C 6,2 C 87 % 1023,6 hPa 0,0 mm 0,0 km/h (0 Bft) S 180 4,4 C 0,0 km/h (0 Bft)
08.09.2015 04:55 6,4 C 6,1 C 87 % 1023,6 hPa 0,0 mm 0,5 km/h (0 Bft) S 180 4,4 C 3,6 km/h (1 Bft)
08.09.2015 05:00 6,2 C 6,0 C 87 % 1023,6 hPa 0,0 mm 1,6 km/h (1 Bft) SO 135 4,2 C 7,8 km/h (2 Bft)
08.09.2015 05:05 6,1 C 5,9 C 87 % 1023,6 hPa 0,0 mm 1,6 km/h (1 Bft) S-SO 157 4,1 C 0,0 km/h (0 Bft)
08.09.2015 05:10 5,9 C 5,7 C 88 % 1023,6 hPa 0,0 mm 0,5 km/h (0 Bft) SO 135 4,1 C 0,0 km/h (0 Bft)
08.09.2015 05:15 5,7 C 5,4 C 88 % 1023,6 hPa 0,0 mm 0,0 km/h (0 Bft) S 180 3,9 C 0,0 km/h (0 Bft)
08.09.2015 05:20 5,8 C 5,5 C 88 % 1023,6 hPa 0,0 mm 1,3 km/h (1 Bft) S 180 4,0 C 0,0 km/h (0 Bft)
08.09.2015 05:25 5,6 C 5,4 C 88 % 1023,6 hPa 0,0 mm 1,6 km/h (1 Bft) S 180 3,8 C 2,8 km/h (1 Bft)
08.09.2015 05:30 5,7 C 5,5 C 88 % 1023,6 hPa 0,0 mm 1,6 km/h (1 Bft) S 180 3,9 C 2,8 km/h (1 Bft)
08.09.2015 05:35 5,5 C 5,4 C 88 % 1023,6 hPa 0,0 mm 1,6 km/h (1 Bft) SO 135 3,7 C 0,0 km/h (0 Bft)
08.09.2015 05:40 5,2 C 5,0 C 88 % 1023,6 hPa 0,0 mm 0,3 km/h (0 Bft) S 180 3,4 C 0,0 km/h (0 Bft)
08.09.2015 05:45 5,1 C 5,1 C 86 % 1023,6 hPa 0,0 mm 0,0 km/h (0 Bft) SO 135 3,0 C 0,0 km/h (0 Bft)
08.09.2015 05:50 4,8 C 4,6 C 88 % 1023,6 hPa 0,0 mm 0,0 km/h (0 Bft) SO 135 3,0 C 0,0 km/h (0 Bft)
08.09.2015 05:55 5,0 C 4,7 C 88 % 1023,4 hPa 0,0 mm 0,0 km/h (0 Bft) S 180 3,2 C 0,0 km/h (0 Bft)
08.09.2015 06:00 4,5 C 4,3 C 88 % 1023,4 hPa 0,0 mm 0,0 km/h (0 Bft) S-SW 202 2,7 C 0,0 km/h (0 Bft)
08.09.2015 06:05 4,5 C 4,2 C 88 % 1023,4 hPa 0,0 mm 0,0 km/h (0 Bft) S-SW 202 2,7 C 0,0 km/h (0 Bft)
08.09.2015 06:10 4,3 C 4,0 C 88 % 1023,4 hPa 0,0 mm 0,0 km/h (0 Bft) S-SW 202 2,5 C 0,0 km/h (0 Bft)
08.09.2015 06:15 4,1 C 3,8 C 88 % 1023,1 hPa 0,0 mm 0,0 km/h (0 Bft) S-SW 202 2,3 C 0,0 km/h (0 Bft)
08.09.2015 06:20 3,8 C 3,6 C 88 % 1023,1 hPa 0,0 mm 0,0 km/h (0 Bft) S-SW 202 2,0 C 0,0 km/h (0 Bft)
08.09.2015 06:25 3,8 C 3,5 C 88 % 1023,1 hPa 0,0 mm 0,0 km/h (0 Bft) S-SW 202 2,0 C 0,0 km/h (0 Bft)
08.09.2015 06:30 4,1 C 3,7 C 88 % 1023,1 hPa 0,0 mm 0,0 km/h (0 Bft) S-SW 202 2,3 C 0,0 km/h (0 Bft)
08.09.2015 06:35 4,2 C 3,8 C 88 % 1023,0 hPa 0,0 mm 0,0 km/h (0 Bft) S-SW 202 2,4 C 0,0 km/h (0 Bft)
08.09.2015 06:40 4,3 C 3,9 C 89 % 1023,0 hPa 0,0 mm 0,0 km/h (0 Bft) S-SW 202 2,7 C 0,0 km/h (0 Bft)
08.09.2015 06:45 4,5 C 4,1 C 89 % 1023,0 hPa 0,0 mm 0,0 km/h (0 Bft) S-SW 202 2,8 C 0,0 km/h (0 Bft)
08.09.2015 06:50 4,3 C 4,0 C 89 % 1023,0 hPa 0,0 mm 0,0 km/h (0 Bft) S-SW 202 2,7 C 0,0 km/h (0 Bft)
08.09.2015 06:55 4,1 C 3,9 C 89 % 1023,1 hPa 0,0 mm 0,0 km/h (0 Bft) O-NO 67 2,5 C 4,1 km/h (1 Bft)
08.09.2015 07:00 4,3 C 4,1 C 89 % 1023,1 hPa 0,0 mm 0,5 km/h (0 Bft) NO 45 2,7 C 0,0 km/h (0 Bft)
08.09.2015 07:05 4,2 C 4,1 C 89 % 1023,1 hPa 0,0 mm 0,5 km/h (0 Bft) N-NO 22 2,6 C 0,0 km/h (0 Bft)
08.09.2015 07:10 4,1 C 3,9 C 89 % 1023,1 hPa 0,0 mm 0,0 km/h (0 Bft) N-NO 22 2,5 C 0,0 km/h (0 Bft)
08.09.2015 07:15 4,1 C 3,9 C 89 % 1023,1 hPa 0,0 mm 0,0 km/h (0 Bft) N-NO 22 2,5 C 0,0 km/h (0 Bft)
08.09.2015 07:20 4,1 C 3,9 C 89 % 1023,1 hPa 0,0 mm 0,0 km/h (0 Bft) N-NO 22 2,5 C 0,0 km/h (0 Bft)
08.09.2015 07:25 4,3 C 4,0 C 89 % 1023,1 hPa 0,0 mm 0,0 km/h (0 Bft) O-NO 67 2,7 C 0,0 km/h (0 Bft)
08.09.2015 07:30 4,7 C 4,4 C 90 % 1023,1 hPa 0,0 mm 0,0 km/h (0 Bft) O-SO 112 3,2 C 0,0 km/h (0 Bft)
08.09.2015 07:35 4,6 C 4,4 C 90 % 1023,1 hPa 0,0 mm 0,0 km/h (0 Bft) O-SO 112 3,1 C 0,0 km/h (0 Bft)
08.09.2015 07:40 4,3 C 4,3 C 90 % 1023,1 hPa 0,0 mm 0,0 km/h (0 Bft) N-NO 22 2,8 C 0,0 km/h (0 Bft)
08.09.2015 07:45 4,2 C 4,2 C 90 % 1023,1 hPa 0,0 mm 0,0 km/h (0 Bft) N-NO 22 2,7 C 0,0 km/h (0 Bft)
08.09.2015 07:50 4,4 C 4,3 C 90 % 1023,1 hPa 0,0 mm 0,0 km/h (0 Bft) NO 45 2,9 C 0,0 km/h (0 Bft)
08.09.2015 07:55 4,5 C 4,4 C 90 % 1022,9 hPa 0,0 mm 0,0 km/h (0 Bft) NO 45 3,0 C 0,0 km/h (0 Bft)
08.09.2015 08:00 4,6 C 5,1 C 90 % 1022,9 hPa 0,0 mm 0,0 km/h (0 Bft) NO 45 3,1 C 0,0 km/h (0 Bft)
08.09.2015 08:05 4,8 C 6,0 C 90 % 1022,9 hPa 0,0 mm 0,0 km/h (0 Bft) N-NO 22 3,3 C 0,0 km/h (0 Bft)
08.09.2015 08:10 5,2 C 8,9 C 87 % 1022,9 hPa 0,0 mm 0,0 km/h (0 Bft) O-SO 112 3,2 C 0,0 km/h (0 Bft)
08.09.2015 08:15 5,9 C 10,5 C 87 % 1022,6 hPa 0,0 mm 0,0 km/h (0 Bft) O-SO 112 3,9 C 0,0 km/h (0 Bft)
08.09.2015 08:20 6,8 C 12,0 C 90 % 1022,6 hPa 0,0 mm 0,0 km/h (0 Bft) N-NO 22 5,3 C 0,0 km/h (0 Bft)
08.09.2015 08:25 7,1 C 12,9 C 90 % 1022,6 hPa 0,0 mm 0,0 km/h (0 Bft) O-NO 67 5,6 C 0,0 km/h (0 Bft)
08.09.2015 08:30 7,8 C 14,3 C 86 % 1022,6 hPa 0,0 mm 0,0 km/h (0 Bft) O-NO 67 5,6 C 0,0 km/h (0 Bft)
08.09.2015 08:35 8,0 C 15,1 C 89 % 1021,8 hPa 0,0 mm 0,0 km/h (0 Bft) O 90 6,3 C 0,0 km/h (0 Bft)
08.09.2015 08:40 8,5 C 15,9 C 89 % 1021,8 hPa 0,0 mm 0,0 km/h (0 Bft) O-SO 112 6,8 C 0,0 km/h (0 Bft)
08.09.2015 08:45 8,6 C 16,8 C 85 % 1021,8 hPa 0,0 mm 0,0 km/h (0 Bft) O-NO 67 6,2 C 0,0 km/h (0 Bft)
08.09.2015 08:50 9,1 C 17,9 C 85 % 1021,8 hPa 0,0 mm 0,0 km/h (0 Bft) O-SO 112 6,7 C 0,0 km/h (0 Bft)
08.09.2015 08:55 9,8 C 18,5 C 85 % 1023,0 hPa 0,0 mm 0,0 km/h (0 Bft) O-NO 67 7,4 C 0,0 km/h (0 Bft)
08.09.2015 09:00 10,2 C 18,9 C 84 % 1023,0 hPa 0,0 mm 0,0 km/h (0 Bft) O-SO 112 7,6 C 0,0 km/h (0 Bft)
08.09.2015 09:05 10,3 C 19,5 C 83 % 1023,0 hPa 0,0 mm 0,0 km/h (0 Bft) NO 45 7,5 C 0,0 km/h (0 Bft)
08.09.2015 09:10 10,9 C 20,1 C 82 % 1023,0 hPa 0,0 mm 0,0 km/h (0 Bft) NO 45 7,9 C 0,0 km/h (0 Bft)
08.09.2015 09:15 11,4 C 20,2 C 82 % 1018,3 hPa 0,0 mm 0,3 km/h (0 Bft) O-NO 67 8,4 C 0,0 km/h (0 Bft)
08.09.2015 09:20 12,0 C 20,0 C 80 % 1018,3 hPa 0,0 mm 0,5 km/h (0 Bft) O-SO 112 8,7 C 0,0 km/h (0 Bft)
08.09.2015 09:25 11,9 C 20,6 C 79 % 1018,3 hPa 0,0 mm 0,3 km/h (0 Bft) NO 45 8,4 C 2,6 km/h (1 Bft)
08.09.2015 09:30 12,3 C 20,0 C 78 % 1018,3 hPa 0,0 mm 1,3 km/h (1 Bft) O-SO 112 8,6 C 0,0 km/h (0 Bft)
08.09.2015 09:35 12,4 C 19,6 C 78 % 1014,2 hPa 0,0 mm 2,6 km/h (1 Bft) O 90 8,7 C 6,0 km/h (2 Bft)
08.09.2015 09:40 12,2 C 18,8 C 76 % 1014,2 hPa 0,0 mm 4,1 km/h (1 Bft) O 90 8,1 C 10,9 km/h (2 Bft)
08.09.2015 09:46 12,2 C 18,7 C 75 % 1014,2 hPa 0,0 mm 4,4 km/h (1 Bft) NO 45 7,9 C 13,7 km/h (3 Bft)
08.09.2015 09:50 12,2 C 18,7 C 75 % 1014,2 hPa 0,0 mm 4,4 km/h (1 Bft) NO 45 7,9 C 13,7 km/h (3 Bft)
08.09.2015 09:55 12,2 C 18,1 C 74 % 1013,9 hPa 0,0 mm 7,0 km/h (2 Bft) N-NO 22 7,7 C 11,1 km/h (2 Bft)
08.09.2015 10:00 12,3 C 17,4 C 74 % 1013,9 hPa 0,0 mm 9,1 km/h (2 Bft) O-NO 67 7,8 C 21,0 km/h (4 Bft)
08.09.2015 10:05 12,4 C 17,6 C 73 % 1013,9 hPa 0,0 mm 7,8 km/h (2 Bft) NO 45 7,7 C 7,0 km/h (2 Bft)
08.09.2015 10:10 12,9 C 17,8 C 73 % 1013,9 hPa 0,0 mm 6,7 km/h (2 Bft) O-NO 67 8,2 C 9,1 km/h (2 Bft)
08.09.2015 10:15 12,9 C 17,7 C 73 % 1024,1 hPa 0,0 mm 7,5 km/h (2 Bft) O-SO 112 8,2 C 6,0 km/h (2 Bft)
08.09.2015 10:20 13,1 C 17,9 C 71 % 1024,1 hPa 0,0 mm 8,0 km/h (2 Bft) NO 45 8,0 C 9,8 km/h (2 Bft)
08.09.2015 10:25 13,1 C 17,9 C 71 % 1024,1 hPa 0,0 mm 8,0 km/h (2 Bft) NO 45 8,0 C 5,7 km/h (1 Bft)
08.09.2015 10:30 13,2 C 18,1 C 70 % 1024,1 hPa 0,0 mm 7,8 km/h (2 Bft) NO 45 7,9 C 13,5 km/h (3 Bft)
08.09.2015 10:35 13,1 C 18,2 C 70 % 1023,8 hPa 0,0 mm 7,0 km/h (2 Bft) O 90 7,8 C 3,4 km/h (1 Bft)
08.09.2015 10:40 13,5 C 18,5 C 70 % 1023,8 hPa 0,0 mm 7,3 km/h (2 Bft) O 90 8,1 C 3,9 km/h (1 Bft)
08.09.2015 10:45 13,8 C 18,9 C 70 % 1023,8 hPa 0,0 mm 6,2 km/h (2 Bft) NO 45 8,4 C 11,7 km/h (2 Bft)
08.09.2015 10:50 14,0 C 18,9 C 69 % 1023,8 hPa 0,0 mm 5,4 km/h (1 Bft) O-SO 112 8,4 C 5,2 km/h (1 Bft)
08.09.2015 10:55 14,2 C 19,4 C 69 % 1022,9 hPa 0,0 mm 5,2 km/h (1 Bft) NO 45 8,6 C 7,3 km/h (2 Bft)
08.09.2015 11:00 14,0 C 18,9 C 67 % 1022,9 hPa 0,0 mm 8,0 km/h (2 Bft) O-SO 112 8,0 C 5,4 km/h (1 Bft)
08.09.2015 11:05 14,1 C 19,1 C 67 % 1022,9 hPa 0,0 mm 7,8 km/h (2 Bft) NO 45 8,1 C 9,3 km/h (2 Bft)
08.09.2015 11:10 14,1 C 19,2 C 67 % 1022,9 hPa 0,0 mm 6,7 km/h (2 Bft) N-NO 22 8,1 C 11,7 km/h (2 Bft)
08.09.2015 11:15 14,1 C 18,9 C 67 % 1021,9 hPa 0,0 mm 8,3 km/h (2 Bft) NO 45 8,1 C 4,7 km/h (1 Bft)
08.09.2015 11:20 14,3 C 18,9 C 68 % 1021,9 hPa 0,0 mm 8,5 km/h (2 Bft) NO 45 8,5 C 15,5 km/h (3 Bft)
08.09.2015 11:25 14,2 C 18,5 C 67 % 1021,9 hPa 0,0 mm 8,0 km/h (2 Bft) N-NO 22 8,2 C 10,6 km/h (2 Bft)
08.09.2015 11:30 14,3 C 18,3 C 67 % 1021,9 hPa 0,0 mm 9,1 km/h (2 Bft) SO 135 8,3 C 11,9 km/h (2 Bft)
08.09.2015 11:35 14,3 C 18,7 C 67 % 1021,6 hPa 0,0 mm 9,3 km/h (2 Bft) NO 45 8,3 C 17,6 km/h (3 Bft)
08.09.2015 11:40 14,6 C 19,2 C 66 % 1021,6 hPa 0,0 mm 8,8 km/h (2 Bft) O-NO 67 8,3 C 18,6 km/h (3 Bft)
08.09.2015 11:45 14,6 C 19,4 C 66 % 1021,6 hPa 0,0 mm 8,3 km/h (2 Bft) NO 45 8,3 C 10,1 km/h (2 Bft)
08.09.2015 11:50 15,1 C 20,4 C 66 % 1021,6 hPa 0,0 mm 8,5 km/h (2 Bft) NO 45 8,8 C 15,8 km/h (3 Bft)
08.09.2015 11:55 14,8 C 20,0 C 66 % 1020,6 hPa 0,0 mm 8,5 km/h (2 Bft) NW 315 8,5 C 9,8 km/h (2 Bft)
08.09.2015 12:00 15,2 C 20,0 C 66 % 1020,6 hPa 0,0 mm 9,6 km/h (2 Bft) N-NO 22 8,9 C 9,3 km/h (2 Bft)
08.09.2015 12:05 15,5 C 20,7 C 66 % 1020,6 hPa 0,0 mm 8,3 km/h (2 Bft) NO 45 9,2 C 16,8 km/h (3 Bft)
08.09.2015 12:10 15,9 C 21,3 C 65 % 1020,6 hPa 0,0 mm 7,3 km/h (2 Bft) N 360 9,3 C 10,6 km/h (2 Bft)
08.09.2015 12:15 16,1 C 21,6 C 63 % 1019,9 hPa 0,0 mm 8,8 km/h (2 Bft) N-NW 337 9,1 C 18,4 km/h (3 Bft)
08.09.2015 12:20 15,5 C 19,9 C 64 % 1019,9 hPa 0,0 mm 10,1 km/h (2 Bft) N 360 8,7 C 13,2 km/h (3 Bft)
08.09.2015 12:25 15,5 C 20,1 C 63 % 1019,9 hPa 0,0 mm 9,8 km/h (2 Bft) NO 45 8,5 C 10,9 km/h (2 Bft)
08.09.2015 12:30 15,3 C 20,0 C 63 % 1019,9 hPa 0,0 mm 9,1 km/h (2 Bft) O-NO 67 8,3 C 10,4 km/h (2 Bft)
08.09.2015 12:35 15,2 C 19,4 C 64 % 1019,8 hPa 0,0 mm 8,8 km/h (2 Bft) NO 45 8,4 C 9,6 km/h (2 Bft)
08.09.2015 12:40 15,5 C 19,7 C 64 % 1019,8 hPa 0,0 mm 9,3 km/h (2 Bft) SO 135 8,7 C 10,9 km/h (2 Bft)
08.09.2015 12:45 15,3 C 19,2 C 63 % 1019,8 hPa 0,0 mm 10,1 km/h (2 Bft) N-NO 22 8,3 C 12,7 km/h (3 Bft)
08.09.2015 12:50 15,3 C 18,1 C 63 % 1019,8 hPa 0,0 mm 10,9 km/h (2 Bft) N-NO 22 8,3 C 15,3 km/h (3 Bft)
08.09.2015 12:55 15,5 C 18,0 C 64 % 1019,2 hPa 0,0 mm 10,1 km/h (2 Bft) N-NO 22 8,7 C 9,6 km/h (2 Bft)
08.09.2015 13:00 15,5 C 18,1 C 62 % 1019,2 hPa 0,0 mm 8,3 km/h (2 Bft) NO 45 8,3 C 13,2 km/h (3 Bft)
08.09.2015 13:05 15,7 C 18,2 C 62 % 1019,2 hPa 0,0 mm 7,5 km/h (2 Bft) NO 45 8,4 C 6,5 km/h (2 Bft)
08.09.2015 13:10 16,0 C 19,1 C 60 % 1019,2 hPa 0,0 mm 7,3 km/h (2 Bft) NO 45 8,2 C 18,4 km/h (3 Bft)
08.09.2015 13:15 15,4 C 18,8 C 61 % 1014,6 hPa 0,0 mm 7,3 km/h (2 Bft) O-NO 67 7,9 C 5,7 km/h (1 Bft)
08.09.2015 13:20 15,8 C 19,5 C 61 % 1014,6 hPa 0,0 mm 8,3 km/h (2 Bft) N-NO 22 8,3 C 14,8 km/h (3 Bft)
08.09.2015 13:25 16,0 C 19,3 C 60 % 1014,6 hPa 0,0 mm 7,8 km/h (2 Bft) NO 45 8,2 C 9,1 km/h (2 Bft)
08.09.2015 13:30 16,4 C 20,7 C 60 % 1014,6 hPa 0,0 mm 8,3 km/h (2 Bft) NO 45 8,6 C 12,7 km/h (3 Bft)
08.09.2015 13:35 15,7 C 19,5 C 59 % 1014,3 hPa 0,0 mm 9,1 km/h (2 Bft) N-NO 22 7,7 C 12,4 km/h (3 Bft)
08.09.2015 13:40 15,7 C 18,9 C 61 % 1014,3 hPa 0,0 mm 8,0 km/h (2 Bft) N-NO 22 8,2 C 10,6 km/h (2 Bft)
08.09.2015 13:45 15,9 C 19,4 C 59 % 1014,3 hPa 0,0 mm 7,8 km/h (2 Bft) N-NO 22 7,9 C 15,0 km/h (3 Bft)
08.09.2015 13:50 15,7 C 19,6 C 60 % 1014,3 hPa 0,0 mm 8,5 km/h (2 Bft) O-NO 67 8,0 C 22,3 km/h (4 Bft)
08.09.2015 13:55 15,5 C 18,4 C 59 % 1014,9 hPa 0,0 mm 8,3 km/h (2 Bft) N-NW 337 7,5 C 11,7 km/h (2 Bft)
08.09.2015 14:00 15,6 C 19,2 C 59 % 1014,9 hPa 0,0 mm 9,1 km/h (2 Bft) O-NO 67 7,6 C 12,9 km/h (3 Bft)
08.09.2015 14:05 15,5 C 18,5 C 59 % 1014,9 hPa 0,0 mm 8,0 km/h (2 Bft) N-NO 22 7,5 C 8,3 km/h (2 Bft)
08.09.2015 14:10 16,0 C 20,1 C 59 % 1014,9 hPa 0,0 mm 7,3 km/h (2 Bft) NO 45 8,0 C 10,1 km/h (2 Bft)
08.09.2015 14:15 16,0 C 19,8 C 59 % 1015,6 hPa 0,0 mm 6,7 km/h (2 Bft) O-NO 67 8,0 C 9,1 km/h (2 Bft)
08.09.2015 14:20 15,8 C 19,6 C 59 % 1015,6 hPa 0,0 mm 7,0 km/h (2 Bft) O 90 7,8 C 7,8 km/h (2 Bft)
08.09.2015 14:25 15,8 C 19,5 C 58 % 1015,6 hPa 0,0 mm 5,7 km/h (1 Bft) N-NW 337 7,6 C 7,0 km/h (2 Bft)
08.09.2015 14:30 16,4 C 20,0 C 59 % 1015,6 hPa 0,0 mm 6,0 km/h (2 Bft) N-NO 22 8,4 C 10,1 km/h (2 Bft)
08.09.2015 14:35 16,4 C 20,5 C 58 % 1017,3 hPa 0,0 mm 8,0 km/h (2 Bft) S-SO 157 8,1 C 5,2 km/h (1 Bft)
08.09.2015 14:40 15,8 C 19,5 C 59 % 1017,3 hPa 0,0 mm 6,0 km/h (2 Bft) O-NO 67 7,8 C 9,6 km/h (2 Bft)
08.09.2015 14:45 15,7 C 18,5 C 59 % 1017,3 hPa 0,0 mm 6,2 km/h (2 Bft) NO 45 7,7 C 16,3 km/h (3 Bft)
08.09.2015 14:50 16,0 C 19,3 C 58 % 1017,3 hPa 0,0 mm 8,3 km/h (2 Bft) N-NO 22 7,7 C 8,8 km/h (2 Bft)
08.09.2015 14:55 16,5 C 19,9 C 58 % 1019,2 hPa 0,0 mm 8,5 km/h (2 Bft) N-NO 22 8,2 C 11,1 km/h (2 Bft)
08.09.2015 15:00 16,4 C 19,9 C 57 % 1019,2 hPa 0,0 mm 10,6 km/h (2 Bft) NW 315 7,9 C 10,6 km/h (2 Bft)
08.09.2015 15:05 16,7 C 19,9 C 57 % 1019,2 hPa 0,0 mm 10,1 km/h (2 Bft) N-NW 337 8,1 C 10,9 km/h (2 Bft)
08.09.2015 15:10 16,8 C 20,8 C 57 % 1019,2 hPa 0,0 mm 9,3 km/h (2 Bft) NO 45 8,2 C 8,3 km/h (2 Bft)
08.09.2015 15:15 17,0 C 21,2 C 57 % 1020,5 hPa 0,0 mm 10,6 km/h (2 Bft) N-NW 337 8,4 C 19,2 km/h (3 Bft)
08.09.2015 15:20 16,6 C 21,1 C 57 % 1020,5 hPa 0,0 mm 9,8 km/h (2 Bft) O-SO 112 8,0 C 23,0 km/h (4 Bft)
08.09.2015 15:25 16,0 C 19,3 C 57 % 1020,5 hPa 0,0 mm 8,8 km/h (2 Bft) N-NW 337 7,5 C 5,7 km/h (1 Bft)
08.09.2015 15:30 16,1 C 19,2 C 58 % 1020,5 hPa 0,0 mm 6,7 km/h (2 Bft) N-NO 22 7,8 C 6,0 km/h (2 Bft)
08.09.2015 15:35 15,8 C 18,4 C 58 % 1022,4 hPa 0,0 mm 8,0 km/h (2 Bft) O-NO 67 7,6 C 10,1 km/h (2 Bft)
08.09.2015 15:40 15,5 C 17,2 C 58 % 1022,4 hPa 0,0 mm 9,1 km/h (2 Bft) N-NO 22 7,3 C 8,0 km/h (2 Bft)
08.09.2015 15:45 15,8 C 17,5 C 59 % 1022,4 hPa 0,0 mm 9,1 km/h (2 Bft) N 360 7,8 C 13,2 km/h (3 Bft)
08.09.2015 15:47 15,9 C 18,5 C 58 % 1022,4 hPa 0,0 mm 10,1 km/h (2 Bft) N-NO 22 7,6 C 15,5 km/h (3 Bft)
08.09.2015 15:50 15,9 C 18,5 C 58 % 1022,4 hPa 0,0 mm 10,1 km/h (2 Bft) N-NO 22 7,6 C 15,5 km/h (3 Bft)
08.09.2015 15:55 15,7 C 17,8 C 58 % 1023,8 hPa 0,0 mm 10,9 km/h (2 Bft) NO 45 7,5 C 6,2 km/h (2 Bft)
08.09.2015 16:00 16,3 C 19,1 C 57 % 1023,8 hPa 0,0 mm 7,3 km/h (2 Bft) O 90 7,8 C 7,0 km/h (2 Bft)
08.09.2015 16:05 16,2 C 19,9 C 57 % 1023,8 hPa 0,0 mm 7,3 km/h (2 Bft) O-NO 67 7,7 C 14,8 km/h (3 Bft)
08.09.2015 16:10 16,2 C 19,8 C 57 % 1023,8 hPa 0,0 mm 7,3 km/h (2 Bft) O-NO 67 7,7 C 13,5 km/h (3 Bft)
08.09.2015 16:15 16,4 C 20,1 C 57 % 1024,9 hPa 0,0 mm 6,2 km/h (2 Bft) N-NO 22 7,9 C 5,7 km/h (1 Bft)
08.09.2015 16:20 16,7 C 21,3 C 56 % 1024,9 hPa 0,0 mm 7,8 km/h (2 Bft) N-NO 22 7,9 C 13,2 km/h (3 Bft)
08.09.2015 16:25 16,5 C 21,5 C 56 % 1024,9 hPa 0,0 mm 8,3 km/h (2 Bft) N-NO 22 7,7 C 8,8 km/h (2 Bft)
08.09.2015 16:30 16,2 C 20,3 C 56 % 1024,9 hPa 0,0 mm 7,5 km/h (2 Bft) O 90 7,4 C 10,4 km/h (2 Bft)
08.09.2015 16:35 15,8 C 19,0 C 58 % 1025,7 hPa 0,0 mm 6,0 km/h (2 Bft) NO 45 7,6 C 2,8 km/h (1 Bft)
08.09.2015 16:40 15,5 C 17,8 C 58 % 1025,7 hPa 0,0 mm 6,0 km/h (2 Bft) N-NO 22 7,3 C 7,0 km/h (2 Bft)
08.09.2015 16:45 15,5 C 17,2 C 58 % 1025,7 hPa 0,0 mm 6,0 km/h (2 Bft) NW 315 7,3 C 10,6 km/h (2 Bft)
08.09.2015 16:50 15,4 C 16,9 C 58 % 1025,7 hPa 0,0 mm 6,7 km/h (2 Bft) NO 45 7,2 C 8,3 km/h (2 Bft)
08.09.2015 16:55 15,5 C 16,9 C 58 % 1026,5 hPa 0,0 mm 7,0 km/h (2 Bft) N 360 7,3 C 9,1 km/h (2 Bft)
08.09.2015 17:00 15,5 C 16,8 C 58 % 1026,5 hPa 0,0 mm 6,5 km/h (2 Bft) N-NW 337 7,3 C 13,5 km/h (3 Bft)
08.09.2015 17:05 15,3 C 16,5 C 58 % 1026,5 hPa 0,0 mm 6,5 km/h (2 Bft) N-NO 22 7,1 C 3,9 km/h (1 Bft)
08.09.2015 17:10 15,0 C 16,0 C 58 % 1026,5 hPa 0,0 mm 6,2 km/h (2 Bft) N-NO 22 6,8 C 7,0 km/h (2 Bft)
08.09.2015 17:15 15,1 C 16,0 C 59 % 1027,1 hPa 0,0 mm 6,5 km/h (2 Bft) N-NO 22 7,1 C 13,7 km/h (3 Bft)
08.09.2015 17:20 15,2 C 16,1 C 58 % 1027,1 hPa 0,0 mm 7,8 km/h (2 Bft) S-SW 202 7,0 C 11,7 km/h (2 Bft)
08.09.2015 17:25 15,3 C 16,2 C 58 % 1027,1 hPa 0,0 mm 9,1 km/h (2 Bft) N-NW 337 7,1 C 17,1 km/h (3 Bft)
08.09.2015 17:30 15,4 C 16,3 C 58 % 1027,1 hPa 0,0 mm 8,3 km/h (2 Bft) NO 45 7,2 C 7,5 km/h (2 Bft)
08.09.2015 17:35 15,5 C 16,4 C 58 % 1021,8 hPa 0,0 mm 8,0 km/h (2 Bft) O-NO 67 7,3 C 10,9 km/h (2 Bft)
08.09.2015 17:40 15,5 C 16,4 C 58 % 1021,8 hPa 0,0 mm 7,3 km/h (2 Bft) N-NW 337 7,3 C 2,8 km/h (1 Bft)
08.09.2015 17:45 15,5 C 16,6 C 58 % 1021,8 hPa 0,0 mm 6,5 km/h (2 Bft) N-NO 22 7,3 C 9,8 km/h (2 Bft)
08.09.2015 17:50 15,4 C 16,5 C 58 % 1021,8 hPa 0,0 mm 6,2 km/h (2 Bft) O-SO 112 7,2 C 0,0 km/h (0 Bft)
08.09.2015 17:55 15,3 C 16,2 C 58 % 1021,6 hPa 0,0 mm 7,0 km/h (2 Bft) NO 45 7,1 C 3,4 km/h (1 Bft)
08.09.2015 18:00 15,0 C 15,8 C 58 % 1021,6 hPa 0,0 mm 6,0 km/h (2 Bft) NO 45 6,8 C 9,3 km/h (2 Bft)
08.09.2015 18:05 14,6 C 15,4 C 59 % 1021,6 hPa 0,0 mm 5,7 km/h (1 Bft) O-NO 67 6,7 C 7,0 km/h (2 Bft)
08.09.2015 18:10 14,0 C 14,7 C 59 % 1021,6 hPa 0,0 mm 5,4 km/h (1 Bft) O 90 6,1 C 2,6 km/h (1 Bft)
08.09.2015 18:15 13,8 C 14,3 C 59 % 1021,6 hPa 0,0 mm 3,4 km/h (1 Bft) S 180 5,9 C 0,0 km/h (0 Bft)
08.09.2015 18:20 13,5 C 13,8 C 60 % 1021,6 hPa 0,0 mm 1,6 km/h (1 Bft) N 360 5,9 C 2,8 km/h (1 Bft)
08.09.2015 18:25 13,4 C 13,5 C 61 % 1021,6 hPa 0,0 mm 1,8 km/h (1 Bft) NO 45 6,0 C 3,9 km/h (1 Bft)
08.09.2015 18:30 13,3 C 13,5 C 61 % 1021,6 hPa 0,0 mm 1,3 km/h (1 Bft) N-NO 22 5,9 C 4,4 km/h (1 Bft)
08.09.2015 18:35 13,4 C 13,5 C 62 % 1021,2 hPa 0,0 mm 1,3 km/h (1 Bft) O-SO 112 6,3 C 0,0 km/h (0 Bft)
08.09.2015 18:40 13,6 C 13,7 C 62 % 1021,2 hPa 0,0 mm 2,1 km/h (1 Bft) O-SO 112 6,5 C 4,9 km/h (1 Bft)
08.09.2015 18:45 13,7 C 13,8 C 62 % 1021,2 hPa 0,0 mm 1,8 km/h (1 Bft) O-SO 112 6,6 C 0,0 km/h (0 Bft)
08.09.2015 18:50 13,7 C 14,0 C 63 % 1021,2 hPa 0,0 mm 1,3 km/h (1 Bft) N-NW 337 6,8 C 7,5 km/h (2 Bft)
08.09.2015 18:55 13,7 C 14,0 C 62 % 1021,2 hPa 0,0 mm 2,3 km/h (1 Bft) NW 315 6,6 C 3,9 km/h (1 Bft)
08.09.2015 19:00 13,7 C 13,8 C 62 % 1021,2 hPa 0,0 mm 5,2 km/h (1 Bft) NO 45 6,6 C 10,1 km/h (2 Bft)
08.09.2015 19:05 13,7 C 13,7 C 61 % 1021,2 hPa 0,0 mm 6,5 km/h (2 Bft) N-NW 337 6,3 C 6,0 km/h (2 Bft)
08.09.2015 19:10 13,4 C 13,5 C 61 % 1021,2 hPa 0,0 mm 5,4 km/h (1 Bft) N-NO 22 6,0 C 4,4 km/h (1 Bft)
08.09.2015 19:15 13,2 C 13,3 C 62 % 1021,2 hPa 0,0 mm 2,3 km/h (1 Bft) N-NO 22 6,1 C 0,0 km/h (0 Bft)
08.09.2015 19:20 12,9 C 12,9 C 63 % 1021,2 hPa 0,0 mm 0,5 km/h (0 Bft) N-NO 22 6,0 C 0,0 km/h (0 Bft)
08.09.2015 19:25 12,7 C 12,7 C 65 % 1021,2 hPa 0,0 mm 0,0 km/h (0 Bft) N-NO 22 6,3 C 0,0 km/h (0 Bft)
08.09.2015 19:30 12,3 C 12,3 C 66 % 1021,2 hPa 0,0 mm 0,0 km/h (0 Bft) N-NO 22 6,1 C 0,0 km/h (0 Bft)
08.09.2015 19:35 12,2 C 12,1 C 66 % 1021,4 hPa 0,0 mm 0,0 km/h (0 Bft) NW 315 6,0 C 0,0 km/h (0 Bft)
08.09.2015 19:40 12,2 C 12,0 C 66 % 1021,4 hPa 0,0 mm 0,0 km/h (0 Bft) SO 135 6,0 C 0,0 km/h (0 Bft)
08.09.2015 19:45 12,1 C 11,9 C 66 % 1021,4 hPa 0,0 mm 0,0 km/h (0 Bft) SO 135 5,9 C 0,0 km/h (0 Bft)
08.09.2015 19:50 11,9 C 11,7 C 67 % 1021,4 hPa 0,0 mm 0,0 km/h (0 Bft) SO 135 6,0 C 0,0 km/h (0 Bft)
08.09.2015 19:55 11,8 C 11,6 C 68 % 1021,2 hPa 0,0 mm 0,0 km/h (0 Bft) S-SO 157 6,1 C 0,0 km/h (0 Bft)
08.09.2015 20:00 11,5 C 11,3 C 69 % 1021,2 hPa 0,0 mm 0,0 km/h (0 Bft) O-SO 112 6,0 C 0,0 km/h (0 Bft)
08.09.2015 20:05 11,4 C 11,3 C 69 % 1021,2 hPa 0,0 mm 0,0 km/h (0 Bft) S 180 5,9 C 0,0 km/h (0 Bft)
08.09.2015 20:10 11,3 C 11,2 C 71 % 1021,2 hPa 0,0 mm 0,8 km/h (0 Bft) S 180 6,2 C 3,4 km/h (1 Bft)
08.09.2015 20:15 11,2 C 11,1 C 71 % 1021,2 hPa 0,0 mm 0,5 km/h (0 Bft) S-SO 157 6,1 C 0,0 km/h (0 Bft)
08.09.2015 20:20 11,0 C 11,0 C 72 % 1021,2 hPa 0,0 mm 0,3 km/h (0 Bft) SO 135 6,2 C 0,0 km/h (0 Bft)
08.09.2015 20:25 11,0 C 10,9 C 73 % 1021,2 hPa 0,0 mm 0,0 km/h (0 Bft) S-SO 157 6,4 C 0,0 km/h (0 Bft)
08.09.2015 20:30 10,9 C 10,8 C 73 % 1021,2 hPa 0,0 mm 0,0 km/h (0 Bft) S-SO 157 6,3 C 0,0 km/h (0 Bft)
08.09.2015 20:35 10,8 C 10,7 C 73 % 1021,4 hPa 0,0 mm 0,0 km/h (0 Bft) SO 135 6,2 C 0,0 km/h (0 Bft)
08.09.2015 20:40 10,8 C 10,8 C 73 % 1021,4 hPa 0,0 mm 0,0 km/h (0 Bft) O-SO 112 6,2 C 0,0 km/h (0 Bft)
08.09.2015 20:45 10,8 C 10,8 C 73 % 1021,4 hPa 0,0 mm 0,0 km/h (0 Bft) SO 135 6,2 C 0,0 km/h (0 Bft)
08.09.2015 20:50 10,6 C 10,6 C 73 % 1021,4 hPa 0,0 mm 0,0 km/h (0 Bft) SO 135 6,0 C 0,0 km/h (0 Bft)
08.09.2015 20:55 10,5 C 10,4 C 73 % 1021,3 hPa 0,0 mm 0,0 km/h (0 Bft) NW 315 5,9 C 0,0 km/h (0 Bft)
08.09.2015 21:00 10,4 C 10,3 C 73 % 1021,3 hPa 0,0 mm 0,0 km/h (0 Bft) NW 315 5,8 C 0,0 km/h (0 Bft)
08.09.2015 21:05 10,5 C 10,3 C 73 % 1021,3 hPa 0,0 mm 0,0 km/h (0 Bft) NW 315 5,9 C 0,0 km/h (0 Bft)
08.09.2015 21:10 10,5 C 10,4 C 74 % 1021,3 hPa 0,0 mm 0,0 km/h (0 Bft) SW 225 6,1 C 0,0 km/h (0 Bft)
08.09.2015 21:15 10,5 C 10,4 C 74 % 1021,4 hPa 0,0 mm 0,0 km/h (0 Bft) S 180 6,1 C 0,0 km/h (0 Bft)
08.09.2015 21:20 10,5 C 10,5 C 74 % 1021,4 hPa 0,0 mm 0,0 km/h (0 Bft) S 180 6,1 C 0,0 km/h (0 Bft)
08.09.2015 21:25 10,5 C 10,5 C 74 % 1021,4 hPa 0,0 mm 0,0 km/h (0 Bft) S-SO 157 6,1 C 0,0 km/h (0 Bft)
08.09.2015 21:30 10,4 C 10,4 C 74 % 1021,4 hPa 0,0 mm 0,0 km/h (0 Bft) S 180 6,0 C 0,0 km/h (0 Bft)
08.09.2015 21:35 10,3 C 10,3 C 74 % 1021,5 hPa 0,0 mm 0,0 km/h (0 Bft) S 180 5,9 C 0,0 km/h (0 Bft)
08.09.2015 21:40 10,2 C 10,1 C 75 % 1021,5 hPa 0,0 mm 0,0 km/h (0 Bft) S 180 6,0 C 0,0 km/h (0 Bft)
08.09.2015 21:45 10,2 C 10,1 C 76 % 1021,5 hPa 0,0 mm 0,0 km/h (0 Bft) S 180 6,2 C 0,0 km/h (0 Bft)
08.09.2015 21:48 10,2 C 10,2 C 75 % 1021,5 hPa 0,0 mm 0,0 km/h (0 Bft) S 180 6,0 C 0,0 km/h (0 Bft)
08.09.2015 21:50 10,2 C 10,2 C 75 % 1021,5 hPa 0,0 mm 0,0 km/h (0 Bft) S 180 6,0 C 0,0 km/h (0 Bft)
08.09.2015 21:55 10,2 C 10,2 C 75 % 1021,6 hPa 0,0 mm 0,0 km/h (0 Bft) S 180 6,0 C 0,0 km/h (0 Bft)
08.09.2015 22:00 10,2 C 10,2 C 76 % 1021,6 hPa 0,0 mm 0,0 km/h (0 Bft) S 180 6,2 C 0,0 km/h (0 Bft)
08.09.2015 22:05 10,3 C 10,3 C 76 % 1021,6 hPa 0,0 mm 0,0 km/h (0 Bft) S-SO 157 6,3 C 0,0 km/h (0 Bft)
08.09.2015 22:10 10,4 C 10,3 C 76 % 1021,6 hPa 0,0 mm 0,0 km/h (0 Bft) SO 135 6,4 C 0,0 km/h (0 Bft)
08.09.2015 22:15 10,4 C 10,3 C 76 % 1021,4 hPa 0,0 mm 0,0 km/h (0 Bft) S 180 6,4 C 0,0 km/h (0 Bft)
08.09.2015 22:20 10,3 C 10,2 C 75 % 1021,4 hPa 0,0 mm 0,0 km/h (0 Bft) O-SO 112 6,1 C 0,0 km/h (0 Bft)
08.09.2015 22:25 10,2 C 10,1 C 75 % 1021,4 hPa 0,0 mm 0,0 km/h (0 Bft) S 180 6,0 C 0,0 km/h (0 Bft)
08.09.2015 22:30 9,9 C 9,8 C 75 % 1021,4 hPa 0,0 mm 0,0 km/h (0 Bft) SO 135 5,7 C 0,0 km/h (0 Bft)
08.09.2015 22:35 9,6 C 9,5 C 75 % 1021,6 hPa 0,0 mm 0,0 km/h (0 Bft) SO 135 5,4 C 0,0 km/h (0 Bft)
08.09.2015 22:40 9,7 C 9,5 C 76 % 1021,6 hPa 0,0 mm 0,0 km/h (0 Bft) S-SO 157 5,7 C 0,0 km/h (0 Bft)
08.09.2015 22:45 9,8 C 9,5 C 76 % 1021,6 hPa 0,0 mm 0,0 km/h (0 Bft) O-SO 112 5,8 C 0,0 km/h (0 Bft)
08.09.2015 22:50 9,9 C 9,7 C 76 % 1021,6 hPa 0,0 mm 0,3 km/h (0 Bft) SO 135 5,9 C 0,0 km/h (0 Bft)
08.09.2015 22:55 10,0 C 9,8 C 76 % 1021,6 hPa 0,0 mm 0,3 km/h (0 Bft) SO 135 6,0 C 0,0 km/h (0 Bft)
08.09.2015 23:00 9,9 C 9,8 C 76 % 1021,6 hPa 0,0 mm 0,3 km/h (0 Bft) S-SW 202 5,9 C 0,0 km/h (0 Bft)
08.09.2015 23:05 9,7 C 9,6 C 76 % 1021,6 hPa 0,0 mm 0,3 km/h (0 Bft) NW 315 5,7 C 0,0 km/h (0 Bft)
08.09.2015 23:10 9,4 C 9,3 C 76 % 1021,6 hPa 0,0 mm 0,0 km/h (0 Bft) NW 315 5,4 C 0,0 km/h (0 Bft)
08.09.2015 23:15 9,3 C 9,2 C 76 % 1021,5 hPa 0,0 mm 0,0 km/h (0 Bft) N-NO 22 5,3 C 0,0 km/h (0 Bft)
08.09.2015 23:20 9,1 C 8,9 C 77 % 1021,5 hPa 0,0 mm 0,0 km/h (0 Bft) S-SO 157 5,3 C 0,0 km/h (0 Bft)
08.09.2015 23:25 9,1 C 8,9 C 78 % 1021,5 hPa 0,0 mm 0,5 km/h (0 Bft) S-SO 157 5,5 C 2,8 km/h (1 Bft)
08.09.2015 23:30 9,1 C 8,8 C 78 % 1021,5 hPa 0,0 mm 1,6 km/h (1 Bft) S 180 5,5 C 3,4 km/h (1 Bft)
08.09.2015 23:35 8,9 C 8,7 C 79 % 1021,4 hPa 0,0 mm 1,3 km/h (1 Bft) S-SO 157 5,5 C 0,0 km/h (0 Bft)
08.09.2015 23:40 8,2 C 8,1 C 78 % 1021,4 hPa 0,0 mm 0,5 km/h (0 Bft) S 180 4,6 C 0,0 km/h (0 Bft)
08.09.2015 23:45 8,2 C 8,0 C 79 % 1021,4 hPa 0,0 mm 0,0 km/h (0 Bft) SO 135 4,8 C 0,0 km/h (0 Bft)
08.09.2015 23:50 7,8 C 7,5 C 80 % 1021,4 hPa 0,0 mm 0,0 km/h (0 Bft) SO 135 4,6 C 0,0 km/h (0 Bft)
08.09.2015 23:55 7,5 C 7,2 C 79 % 1021,3 hPa 0,0 mm 0,0 km/h (0 Bft) S-SW 202 4,1 C 0,0 km/h (0 Bft)
_ Min-Zeit 06:25 06:25 16:30 10:10 - 23:55 - - 06:25 23:55
Minimum _ 3,8 C 3,5 C 56 % 1013,9 hPa - 0,0 km/h (0 Bft) - - 2,0 C 0,0 km/h (0 Bft)
_ Max-Zeit 15:15 12:15 08:25 17:30 23:55 15:55 - - 12:10 15:20
Maximum _ 17,0 C 21,6 C 90 % 1027,1 hPa 0,0 mm 10,9 km/h
NO (2 Bft)
- - 9,3 C 23,0 km/h
O-SO (4 Bft)
Durchschnitt _ 10,9 C 12,6 C 74 % 1021,9 hPa #0,0 mm 3,0 km/h (1 Bft) NO - 6,2 C 4,1 km/h (1 Bft)